| time (UTC) | temp F | wind direction | speed MPH | gust MPH | rain 1hr in | rain 24hr in | rain mn in | humidity % | barometer mb |
| 20260905064505 | 51 | 292 | 5.0 | 10.0 | 0.00 | 0.12 | 0.12 | 75 | 1016.9 |
| 20260905063006 | 51 | 263 | 5.0 | 11.0 | 0.00 | 0.12 | 0.12 | 74 | 1017.0 |
| 20260905060005 | 51 | 252 | 4.0 | 8.0 | 0.05 | 0.12 | 0.12 | 71 | 1016.4 |
| 20260905054505 | 51 | 252 | 6.0 | 10.0 | 0.07 | 0.12 | 0.12 | 67 | 1015.5 |
| 20260905053005 | 51 | 284 | 4.0 | 8.0 | 0.08 | 0.12 | 0.12 | 65 | 1016.0 |
| 20260905051505 | 52 | 353 | 4.0 | 7.0 | 0.06 | 0.09 | 0.09 | 62 | 1016.0 |
| 20260905050005 | 53 | 304 | 4.0 | 11.0 | 0.04 | 0.07 | 0.07 | 58 | 1016.1 |
| 20260905044505 | 54 | 2 | 4.0 | 9.0 | 0.01 | 0.05 | 0.05 | 55 | 1016.3 |
| 20260905041505 | 54 | 312 | 3.0 | 8.0 | 0.01 | 0.04 | 0.04 | 61 | 1015.8 |
| 20260905040005 | 55 | 293 | 2.0 | 6.0 | 0.02 | 0.04 | 0.04 | 61 | 1015.2 |
| 20260905034505 | 55 | 336 | 2.0 | 4.0 | 0.02 | 0.04 | 0.04 | 61 | 1015.3 |
| 20260905030005 | 56 | 295 | 2.0 | 6.0 | 0.01 | 0.01 | 0.01 | 56 | 1015.3 |
| 20260905024504 | 56 | 333 | 3.0 | 7.0 | 0.00 | 0.00 | 0.00 | 53 | 1014.8 |
| 20260905023005 | 57 | 333 | 5.0 | 12.0 | 0.00 | 0.00 | 0.00 | 51 | 1014.8 |
| 20260905021505 | 57 | 326 | 3.0 | 10.0 | 0.00 | 0.00 | 0.00 | 48 | 1014.3 |
| 20260905020005 | 57 | 339 | 3.0 | 9.0 | 0.00 | 0.00 | 0.00 | 47 | 1014.4 |
| 20260905013004 | 58 | 344 | 5.0 | 13.0 | 0.00 | 0.00 | 0.00 | 46 | 1014.1 |
| 20260905011504 | 58 | 12 | 5.0 | 11.0 | 0.00 | 0.00 | 0.00 | 45 | 1014.3 |
| 20260905010004 | 59 | 7 | 7.0 | 16.0 | 0.00 | 0.00 | 0.00 | 43 | 1014.1 |
| 20260905003008 | 60 | 329 | 8.0 | 15.0 | 0.00 | 0.00 | 0.00 | 42 | 1013.9 |
| 20260905000008 | 62 | 351 | 9.0 | 20.0 | 0.00 | 0.00 | 0.00 | 36 | 1013.5 |
| 20260904234508 | 65 | 338 | 5.0 | 21.0 | 0.00 | 0.00 | 0.00 | 33 | 1013.0 |
| 20260904233008 | 66 | 314 | 4.0 | 8.0 | 0.00 | 0.00 | 0.00 | 32 | 1012.1 |
| 20260904231508 | 66 | 291 | 5.0 | 8.0 | 0.00 | 0.00 | 0.00 | 32 | 1012.0 |
| 20260904230007 | 66 | 322 | 4.0 | 8.0 | 0.00 | 0.00 | 0.00 | 32 | 1012.0 |
| 20260904224508 | 66 | 317 | 5.0 | 10.0 | 0.00 | 0.00 | 0.00 | 32 | 1011.8 |
| 20260904221507 | 67 | 314 | 3.0 | 6.0 | 0.00 | 0.00 | 0.00 | 31 | 1012.0 |
| 20260904220011 | 67 | 314 | 4.0 | 8.0 | 0.00 | 0.00 | 0.00 | 31 | 1011.8 |
| 20260904214508 | 67 | 329 | 4.0 | 7.0 | 0.00 | 0.00 | 0.00 | 31 | 1011.8 |
| 20260904213008 | 67 | 314 | 4.0 | 9.0 | 0.00 | 0.00 | 0.00 | 31 | 1011.8 |
| 20260904211508 | 67 | 314 | 4.0 | 7.0 | 0.00 | 0.00 | 0.00 | 31 | 1011.9 |
| 20260904210008 | 68 | 323 | 4.0 | 6.0 | 0.00 | 0.00 | 0.00 | 31 | 1011.8 |
| 20260904203008 | 68 | 333 | 4.0 | 8.0 | 0.00 | 0.00 | 0.00 | 31 | 1011.9 |
| 20260904201508 | 68 | 1 | 4.0 | 8.0 | 0.00 | 0.00 | 0.00 | 31 | 1012.0 |
| 20260904200008 | 68 | 343 | 3.0 | 7.0 | 0.00 | 0.00 | 0.00 | 31 | 1012.1 |
| 20260904194507 | 68 | 314 | 3.0 | 4.0 | 0.00 | 0.00 | 0.00 | 31 | 1012.3 |
| 20260904193007 | 69 | 306 | 4.0 | 8.0 | 0.00 | 0.00 | 0.00 | 31 | 1012.1 |
| 20260904191507 | 69 | 307 | 3.0 | 7.0 | 0.00 | 0.00 | 0.00 | 31 | 1012.4 |
| 20260904190007 | 69 | 314 | 3.0 | 5.0 | 0.00 | 0.00 | 0.00 | 31 | 1012.6 |
| 20260904184507 | 69 | 292 | 3.0 | 6.0 | 0.00 | 0.00 | 0.00 | 31 | 1012.6 |
| 20260904183007 | 69 | 310 | 3.0 | 6.0 | 0.00 | 0.00 | 0.00 | 31 | 1012.7 |
| 20260904181507 | 70 | 301 | 4.0 | 7.0 | 0.00 | 0.00 | 0.00 | 31 | 1012.6 |
| 20260904180007 | 70 | 290 | 5.0 | 10.0 | 0.00 | 0.00 | 0.00 | 29 | 1012.4 |
| 20260904174507 | 71 | 351 | 4.0 | 7.0 | 0.00 | 0.00 | 0.00 | 29 | 1012.2 |
| 20260904173007 | 71 | 303 | 4.0 | 10.0 | 0.00 | 0.00 | 0.00 | 25 | 1011.9 |
| 20260904171507 | 72 | 273 | 6.0 | 13.0 | 0.00 | 0.00 | 0.00 | 25 | 1011.8 |
| 20260904170007 | 72 | 283 | 6.0 | 12.0 | 0.00 | 0.00 | 0.00 | 24 | 1011.8 |
| 20260904164506 | 73 | 297 | 7.0 | 15.0 | 0.00 | 0.00 | 0.00 | 24 | 1012.1 |
| 20260904163006 | 73 | 251 | 9.0 | 17.0 | 0.00 | 0.00 | 0.00 | 24 | 1012.0 |
| 20260904161506 | 75 | 300 | 9.0 | 18.0 | 0.00 | 0.00 | 0.00 | 24 | 1012.2 |
| 20260904160006 | 76 | 262 | 9.0 | 18.0 | 0.00 | 0.00 | 0.00 | 23 | 1012.2 |
| 20260904154506 | 77 | 284 | 8.0 | 20.0 | 0.00 | 0.00 | 0.00 | 23 | 1012.5 |
| 20260904153006 | 78 | 272 | 5.0 | 11.0 | 0.00 | 0.00 | 0.00 | 23 | 1012.5 |
| 20260904151506 | 76 | 286 | 7.0 | 12.0 | 0.00 | 0.00 | 0.00 | 24 | 1012.8 |
| 20260904150007 | 76 | 258 | 8.0 | 15.0 | 0.00 | 0.00 | 0.00 | 24 | 1013.0 |
| 20260904144507 | 76 | 293 | 7.0 | 14.0 | 0.00 | 0.00 | 0.00 | 24 | 1013.1 |
| 20260904143007 | 76 | 234 | 8.0 | 18.0 | 0.00 | 0.00 | 0.00 | 24 | 1013.5 |
| 20260904141509 | 75 | 264 | 9.0 | 16.0 | 0.00 | 0.00 | 0.00 | 24 | 1013.8 |
| 20260904134507 | 73 | 315 | 7.0 | 15.0 | 0.00 | 0.00 | 0.00 | 24 | 1013.9 |
| 20260904133007 | 73 | 272 | 8.0 | 13.0 | 0.00 | 0.00 | 0.00 | 25 | 1014.3 |
| 20260904131506 | 72 | 204 | 8.0 | 16.0 | 0.00 | 0.00 | 0.00 | 25 | 1014.2 |
| 20260904130007 | 74 | 264 | 8.0 | 16.0 | 0.00 | 0.00 | 0.00 | 24 | 1014.5 |
| 20260904123007 | 72 | 239 | 10.0 | 30.0 | 0.00 | 0.00 | 0.00 | 26 | 1014.6 |
| 20260904113006 | 69 | 291 | 7.0 | 13.0 | 0.00 | 0.00 | 0.00 | 32 | 1015.6 |
| 20260904111506 | 69 | 263 | 7.0 | 17.0 | 0.00 | 0.00 | 0.00 | 32 | 1015.6 |
| 20260904110006 | 70 | 248 | 8.0 | 17.0 | 0.00 | 0.00 | 0.00 | 31 | 1015.7 |
| 20260904104506 | 71 | 262 | 9.0 | 20.0 | 0.00 | 0.00 | 0.00 | 29 | 1015.9 |
| 20260904101506 | 69 | 233 | 7.0 | 15.0 | 0.00 | 0.00 | 0.00 | 32 | 1016.1 |
| 20260904094506 | 68 | 232 | 7.0 | 16.0 | 0.00 | 0.00 | 0.00 | 33 | 1016.6 |
| 20260904093006 | 67 | 272 | 7.0 | 12.0 | 0.00 | 0.00 | 0.00 | 35 | 1016.4 |
| 20260904091506 | 66 | 265 | 8.0 | 16.0 | 0.00 | 0.00 | 0.00 | 34 | 1016.8 |
| 20260904090005 | 66 | 252 | 6.0 | 12.0 | 0.00 | 0.00 | 0.00 | 35 | 1016.9 |
| 20260904084506 | 65 | 272 | 8.0 | 16.0 | 0.00 | 0.00 | 0.00 | 35 | 1017.0 |
| 20260904083006 | 65 | 277 | 7.0 | 14.0 | 0.00 | 0.00 | 0.00 | 35 | 1017.1 |
| 20260904081505 | 64 | 226 | 5.0 | 11.0 | 0.00 | 0.00 | 0.00 | 41 | 1017.0 |
| 20260904080006 | 63 | 238 | 5.0 | 10.0 | 0.00 | 0.00 | 0.00 | 41 | 1016.7 |
| 20260904074506 | 62 | 225 | 5.0 | 10.0 | 0.00 | 0.00 | 0.00 | 42 | 1017.1 |
| 20260904073005 | 62 | 238 | 6.0 | 10.0 | 0.00 | 0.00 | 0.00 | 44 | 1017.0 |
| 20260904071505 | 62 | 223 | 5.0 | 12.0 | 0.00 | 0.00 | 0.00 | 44 | 1017.0 |
| 20260904070005 | 60 | 257 | 7.0 | 13.0 | 0.00 | 0.00 | 0.00 | 46 | 1016.9 |